User: anonymous   Login
Location: Unspecified
(0.0000°N, 0.0000°E)
Time: 14:07:52
(UTC+00:00)
Language:

IRAZU - Orbit

View from above orbital plane
View from above orbital plane
View from above satellite
View from above satellite

Ground track
Ground track

The orbit data is extracted from the following two-line orbital elements,

1 43468U 98067NR  19047.76233670 +.00016547 +00000-0 +18350-3 0  9993
2 43468 051.6363 230.0083 0000236 195.4527 164.6461 15.63092066143847
Epoch (UTC): 16 February 2019 18:17:45
Eccentricity: 0.0000236
inclination: 51.6363°
perigee height: 378 km
apogee height: 379 km
right ascension of ascending node: 230.0083°
argument of perigee: 195.4527°
revolutions per day: 15.63092066
mean anomaly at epoch: 164.6461°
orbit number at epoch: 14384

The dashed part of the orbit path shows where the satellite is in the earth's shadow,  

DLR